Regional Weather Roundup
Issued by NWS

Home | Current Version | Previous Version | Text Only | Print | Product List | Glossary On
Versions: 1 2 3 4 5 6 7 8 9 10 11 12 13 14 15 16 17 18 19 20 21 22 23 24 25 26 27 28 29 30 31 32 33 34 35 36 37 38 39 40 41 42 43 44 45 46 47 48 49 50
000
ASUS44 KLIX 161410
RWRLA
LOUISIANA WEATHER ROUNDUP
NATIONAL WEATHER SERVICE NEW ORLEANS LA
900 AM CDT TUE SEP 16 2014

NOTE: "FAIR" INDICATES FEW OR NO CLOUDS BELOW 12,000 FEET WITH NO
      SIGNIFICANT WEATHER AND/OR OBSTRUCTIONS TO VISIBILITY.
      SKY/WX - SKY CONDITION AND SIGNIFICANT WEATHER.
      TMP - AIR TEMPERATURE.    DP   - DEWPOINT TEMPERATURE.
      RH  - RELATIVE HUMIDITY.  PRES - PRESSURE.
      HX  - HEAT INDEX.         WCI  - WIND CHILL INDEX.

*  THESE STATIONS ARE NOT NWS OR FAA STATIONS AND ARE NOT UNDER
   NWS QUALITY CONTROL.

LAZ040-048-061>063-065-066-069-161500-
SOUTHEAST LOUISIANA

CITY           SKY/WX    TMP DP  RH WIND       PRES   REMARKS
N.O. AUDUBON     N/A     83  75  76 MISG        N/A
N.O. INTL ARPT MOSUNNY   83  74  74 CALM      30.07S
N.O. LAKEFRONT PTSUNNY   83  75  77 N6        30.08R
N.O. DOWNTOWN* PTSUNNY   84  73  70 CALM      30.08R
SLIDELL        PTSUNNY   77  73  87 N3        30.08R
BATON ROUGE    SUNNY     81  75  82 CALM      30.08R
BOOTHVILLE     CLOUDY    79  76  90 SW9       30.09S
BELLE CHASSE   PTSUNNY   84  74  71 CALM      30.07R
BOGALUSA*      PTSUNNY   78  75  89 CALM      30.09S FOG
GALLIANO*      NOT AVBL
NEW ROADS*     FAIR      79  76  90 CALM      30.08S
GONZALES*      FAIR      81  80  96 CALM      30.07R
HAMMOND*       SUNNY     82  73  74 CALM      30.10R
HOUMA*         PTSUNNY   81  73  78 SE9       30.09R
PORT FOURCHON* PTSUNNY   77  73  88 SW10      30.13R

$$

LAZ041-044-053-054-161500-
SOUTHWEST LOUISIANA

CITY           SKY/WX    TMP DP  RH WIND       PRES   REMARKS
LAKE CHARLES   MOSUNNY   82  75  79 E3        30.07R
LAFAYETTE      SUNNY     81  77  88 CALM      30.07S
PATTERSON      MOSUNNY   81  79  94 E3        30.10R
SALT POINT       N/A     84  77  79 NE3       30.06S
NEW IBERIA     SUNNY     84  77  79 N3        30.08R
CHENAULT AIRPK MOSUNNY   81  73  78 E5        30.08R

$$

LAZ027-028-161500-
CENTRAL LOUISIANA

CITY           SKY/WX    TMP DP  RH WIND       PRES   REMARKS
FORT POLK      MOSUNNY   77  72  84 CALM      30.09S
ALEXANDRIA INT CLOUDY    76  71  85 CALM      30.08R
ALEXANDRIA     CLOUDY    77  70  79 VRB5      30.09F

$$

LAZ001-002-161500-
NORTHWEST LOUISIANA

CITY           SKY/WX    TMP DP  RH WIND       PRES   REMARKS
SHREVEPORT     CLOUDY    76  70  82 CALM      30.11S
BARKSDALE AFB  CLOUDY    73  70  89 NE2       30.12S
DTN SHREVEPORT CLOUDY    73  69  87 CALM      30.12S

$$

LAZ014-016-161500-
NORTHEAST LOUISIANA

CITY           SKY/WX    TMP DP  RH WIND       PRES   REMARKS
MONROE         PTSUNNY   76  69  79 CALM      30.12S
TALLULAH       CLOUDY    76  69  79 N5        30.11R

$$



USA.gov is the U.S. government's official web portal to all federal, state and local government web resources and services.